User: anonymous   Login
Location: SAPM � Hemmingford
(45.0500°N, 73.5833°W)
Time: 07:19:33
(UTC-05:00)
Language:

Cosmos 1603 - Orbit

View from above orbital plane
View from above orbital plane
View from above satellite
View from above satellite

Ground track
Ground track

The orbit data is extracted from the following two-line orbital elements,

1 15333U 84106A   15026.78363859 -.00000282  00000-0 -12363-3 0  1823
2 15333 071.0280 119.0545 0016905 094.3026 041.7950 14.13981583564942
Epoch (UTC): 26 January 2015 18:48:26
Eccentricity: 0.0016905
inclination: 71.0280°
perigee height: 833 km
apogee height: 858 km
right ascension of ascending node: 119.0545°
argument of perigee: 94.3026°
revolutions per day: 14.13981583
mean anomaly at epoch: 41.7950°
orbit number at epoch: 56494

The dashed part of the orbit path shows where the satellite is in the earth's shadow,  

DLR